Torna al catalogo

STARLINK-31667

AttivoComunicazioniVLEO
NORAD 59609·PAYLOAD·🇺🇸 United States

Lanciato Apr 28, 2024 da Cape Canaveral Space Force Station

Loading…

Prossimi Passaggi (prossime 24 ore)

TLE

AggiornatoSource: CelesTrak SupGP

Epoca: Sep 14, 2026, 22:37 UTC

1 59609C 24080J   26257.94284722  .00035558  00000+0  12879-2 0  2574
2 59609  43.0010  45.2034 0001704 273.1974  10.6518 15.27560731    11

Traccia STARLINK-31667 in tempo reale con AllMySat

Download on the App Store